Tracking 35275 objects as of 8-Sep-2026
HD Live streaming from Space Station
objects crossing your sky now

NAVSTAR 18 (USA 50)

Track NAVSTAR 18 (USA 50) now!
NAVSTAR 18 (USA 50) is classified as:


NORAD ID: 20452
Int'l Code: 1990-008A
Launch date: January 24, 1990
Source: United States (US)
Launch site: AIR FORCE EASTERN TEST RANGE (AFETR)
Your satellite tracking list
Your tracking list is empty




NASA's NSSDC Master Catalog

Two Line Element Set (TLE):
1 20452U 90008A   26249.22725420 -.00000011  00000-0  00000-0 0  9990
2 20452  54.8782 130.8102 0013546 284.1079 248.5072  1.89597700257967
Source of the keplerian elements: AFSPC